Location: Madison
(43.0730°N, 89.3819°W)
Time: 19:56:12
(UTC-06:00)

ISS - Pass Details

Date: 27 January 2019
Orbit: 403 x 411 km, 51.6° (Epoch: 17 February)

Event Time Altitude Azimuth Distance (km) Brightness Sun altitude
Rises 19:07:15 0° 281° (W) 2,334 1.3 -22.6°
Reaches altitude 10° 19:09:42 10° 299° (WNW) 1,476 -0.2 -23.1°
Enters shadow 19:11:36 19° 332° (NNW) 1,038 -1.6 -23.4°
